Overview Statistics Trail Chart Weather Telemetry Raw packets
 

This is the latest recevied weather packets stored in our database for station/object DN9EM-3. If no packets are shown the sender has not sent any weather packets the latest 10 day(s).

<< 13 14 15 16 17 18 19 >>
Time Temp. Humidity Pressure Rain* Wind** Luminosity Snow
1788357616 23.33° C 57% 1019.3 hPa 0 mm - - -
1788357073 22.22° C 58% 1019.3 hPa 0 mm - - -
1788356471 22.78° C 57% 1019.3 hPa 0 mm - - -
1788355868 22.78° C 58% 1019.4 hPa 0 mm - - -
1788355266 21.67° C 60% 1019.4 hPa 0 mm - - -
1788354663 21.67° C 59% 1019.6 hPa 0 mm - - -
1788354060 22.22° C 59% 1019.5 hPa 0 mm - - -
1788353458 21.67° C 60% 1019.7 hPa 0 mm - - -
1788352855 22.22° C 60% 1019.6 hPa 0 mm - - -
1788352253 22.22° C 60% 1019.7 hPa 0 mm - - -
1788351650 21.11° C 61% 1019.7 hPa 0 mm - - -
1788351048 21.11° C 61% 1019.8 hPa 0 mm - - -
1788350445 22.22° C 60% 1019.7 hPa 0 mm - - -
1788349842 22.78° C 60% 1019.8 hPa 0 mm - - -
1788349240 22.78° C 60% 1019.9 hPa 0 mm - - -
1788348637 22.78° C 61% 1020 hPa 0 mm - - -
1788348035 22.22° C 62% 1020 hPa 0 mm - - -
1788347432 22.78° C 61% 1020.1 hPa 0 mm - - -
1788346830 22.22° C 62% 1020.1 hPa 0 mm - - -
1788346227 22.22° C 63% 1020.1 hPa 0 mm - - -
1788345624 22.22° C 61% 1020.2 hPa 0 mm - - -
1788345022 21.67° C 62% 1020.2 hPa 0 mm - - -
1788344419 21.11° C 63% 1020.3 hPa 0 mm - - -
1788343817 21.11° C 64% 1020.1 hPa 0 mm - - -
1788343274 22.22° C 61% 1020.2 hPa 0 mm - - -

* Rain latest hour (hover to see other rain measurements)
** Current wind speed in m/s (hover to see current wind gust speed)